User: anonymous   Login
Location: Bottom School (historical)
(37.9078°N, 89.3593°W)
Time: 16:20:37
(UTC+00:00)
Language:

JUGNU - Orbit

View from above orbital plane
View from above orbital plane
View from above satellite
View from above satellite

Ground track
Ground track

The orbit data is extracted from the following two-line orbital elements,

1 37839U 11058B   23078.98816742  .00000593  00000-0  17270-3 0  9997
2 37839  19.9616 304.1057 0018816 315.2308  73.2266 14.12908846591262
Epoch (UTC): 19 March 2023 23:42:57
Eccentricity: 0.0018816
inclination: 19.9616°
perigee height: 836 km
apogee height: 863 km
right ascension of ascending node: 304.1057°
argument of perigee: 315.2308°
revolutions per day: 14.12908846
mean anomaly at epoch: 73.2266°
orbit number at epoch: 59126

The dashed part of the orbit path shows where the satellite is in the earth's shadow,  

DLR